This is the latest recevied weather packets stored in our database for station/object N0QWM. If no packets are shown the sender has not sent any weather packets the latest 10 day(s).
| Time | Temp. | Humidity | Pressure | Rain* | Wind** | Luminosity | Snow |
|---|---|---|---|---|---|---|---|
| 1778262526 | 18.89° C | 71% | 1021.1 hPa | 0 mm | - | 174 W/m² | - |
| 1778262223 | 18.89° C | 66% | 1021.1 hPa | 0 mm | - | 183 W/m² | - |
| 1778261919 | 18.89° C | 69% | 1021.6 hPa | 0 mm | - | 167 W/m² | - |
| 1778261617 | 18.33° C | 69% | 1021.8 hPa | 0 mm | - | 163 W/m² | - |
| 1778261312 | 18.89° C | 66% | 1021.3 hPa | 0 mm | - | 150 W/m² | - |
| 1778261010 | 18.89° C | 64% | 1021.2 hPa | 0 mm | - | 166 W/m² | - |
| 1778260706 | 18.89° C | 65% | 1021.7 hPa | 0 mm | - | 181 W/m² | - |
| 1778260402 | 18.89° C | 62% | 1021.8 hPa | 0 mm | - | 289 W/m² | - |
| 1778260099 | 18.89° C | 62% | 1021.9 hPa | 0 mm | - | 232 W/m² | - |
| 1778259798 | 18.89° C | 66% | 1021.8 hPa | 0 mm | - | 229 W/m² | - |
| 1778259494 | 18.89° C | 67% | 1021.6 hPa | 0 mm | - | 252 W/m² | - |
| 1778259191 | 18.89° C | 66% | 1021.9 hPa | 0 mm | - | 224 W/m² | - |
| 1778258887 | 18.89° C | 66% | 1022 hPa | 0 mm | - | 212 W/m² | - |
| 1778258584 | 18.89° C | 67% | 1022.1 hPa | 0 mm | - | 220 W/m² | - |
| 1778258282 | 18.89° C | 63% | 1022 hPa | 0 mm | - | 223 W/m² | - |
| 1778257979 | 18.89° C | 65% | 1022.3 hPa | 0 mm | - | 257 W/m² | - |
| 1778257675 | 19.44° C | 68% | 1022.3 hPa | 0 mm | - | 256 W/m² | - |
| 1778257372 | 19.44° C | 65% | 1022.1 hPa | 0 mm | - | 245 W/m² | - |
| 1778257069 | 20° C | 64% | 1022.2 hPa | 0 mm | - | 324 W/m² | - |
| 1778256766 | 19.44° C | 65% | 1022.2 hPa | 0 mm | - | 505 W/m² | - |
| 1778256464 | 19.44° C | 64% | 1022.5 hPa | 0 mm | - | 382 W/m² | - |
| 1778256162 | 19.44° C | 67% | 1022.3 hPa | 0 mm | - | 428 W/m² | - |
| 1778255858 | 18.89° C | 67% | 1022.4 hPa | 0 mm | - | 501 W/m² | - |
| 1778255555 | 19.44° C | 65% | 1022.4 hPa | 0 mm | - | 475 W/m² | - |
| 1778255246 | 18.33° C | 67% | 1022.8 hPa | 0 mm | - | 375 W/m² | - |
* Rain latest hour (hover to see other rain measurements)
** Current wind speed in m/s (hover to see current wind gust speed)